Starlink 30105

operational
NORAD ID: 57433 Int'l Des: 2023-105 Owner: SPXS Country: US Constellation: starlink
LEOCIRCULAR

About Starlink 30105

Description loading...

Live Position

Loading 3D Globe...

Upcoming Passes

Altitude History

Altitude vs Time

uPlot chart will show altitude changes over time

Two-Line Element Set

1 57433U 23105D 26034.87279205 -.00000712 00000-0 -16373-4 0 9994
2 57433 42.9987 221.8129 0000793 303.4788 56.5988 15.27574516143158
Epoch: Feb 3, 2026 • Age: 17 hours

Current Status

Altitude 484.7 km
Velocity 7.62 km/s
Sub-Earth Point -9.04°S, 70.74°E
Launch Date Jul 24, 2023
Age 2.5 years
Type internet

Technical Details

Classification Payload
Mass 730.00 kg
Dry Mass 700.00 kg
Total Mass 730.00 kg
Length 0.30 m
Diameter 4.10 m
Span 29.00 m
Shape Box + pan
Manufacturer SPXS
Bus Type Starlink V2M
Phase Status In Orbit
Owner/State SPXS/US

Large Constellations

Loading constellations...